STARLINK-32162, 60597

Orbit data source: Space-Track

STARLINK-32162, 60597 is a payload satellite owned by SpaceX/Seattle (US) in LEO that was launched on Tue, 20 Aug 2024 UTC via an FALCON 9 launch vehicle from the Air Force Eastern Test Range (AFETR). Payload-class satellites include a variety of spacecraft equipped with specific instruments for various scientific and technological missions. These include communications satellites like Starlink; space stations such as the ISS; scientific satellites like the Hubble; Earth observation satellites from companies like Planet Labs, Umbra, and HawkEye 360; GPS; miniature CubeSats for education and research; and military/defense satellites.

Loading next visibility...
Identifier
60597, 2024-150Q
Orbit
LEO
Country
Flag of USUS
Related business
Manufacturer
SpaceX/Seattle
Mission
Operational Commercial Communications
Bus & Motor
STARLINK V2M, Unknown motor
Mass
730 kg wet, ~700 kg dry
Launch date (UTC)
2024-08-20 (2 years ago)
Launch vehicle
FALCON 9
Launch site
Air Force Eastern Test Range (AFETR)
Object type
Payload
Rocket body
Debris
Shape & HBR
Box + 2 Pan, 17.7 m
Radar Cross Section
33.884 m², Large (>1 m²)

Expand to show TLE details & history
Last TLE update: 13 hours ago

TLE from 13 hours ago
0 STARLINK-32162
1 60597U 24150Q   26171.34519659  .00001624  00000-0  66936-4 0  9995
2 60597  53.1596 190.5410 0001050  84.5945 275.5175 15.30202273103752
Epoch: 2026-06-20T08:17Z
TLE epoch observation values (Epoch: 2026-06-20T08:17:04.985Z)
Latitude
-0.00006°
Longitude
157.70903°
Altitude
476.039 km
Speed
7.629 km/s
True Right ascension
12h 42m 09s
True Declination
0° 00' 00"
Sunlit
Object was in daylight at epoch
Visualization orbit readout
Latitude
Unknown
Longitude
Unknown
Altitude
Unknown
Speed
Unknown
Apparent Right ascension
Unknown
Apparent Declination
Unknown
Sunlit
N/A
Visualization observer readout
Local Sidereal Time
08:33:31
Azimuth
Unknown
Elevation
Unknown
Doppler factor
Unknown
Orbital elements
Apogee altitude
476.184 km
Perigee altitude
474.745 km
Semi-major axis
6,853.602 km
Eccentricity
0.00011
Inclination
53.1596°
RAAN
190.541°
Arg. of periapsis
84.5945°
True anomaly
275.50552°
Mean anomaly
275.5175°
Eccentric anomaly
275.51151°
Mean motion
3.82529 °/min
Orbital period
94.11 mins
BSTAR
0.000066936
Loading maneuver chart data...
Computing Atmospheric mass density...
Loading historical data...
Loading historical data...
Loading historical data...
Loading historical data...
Loading historical data...
Loading historical data...
Loading historical data...

Documentation

Showing up to 5 results
|